Location: Gro� Glienicke
(52.4675°N, 13.1079°E)
Time: 02:37:40
(UTC+00:00)

Cosmos 1346 Rocket - Pass Details

Date: 06 July 2020
Orbit: 533 x 546 km, 81.2° (Epoch: 04 August)

Event Time Altitude Azimuth Distance (km) Brightness Sun altitude
Exits shadow 22:20:43 18° 128° (SE) 1,366 4.4 -14.1°
Maximum altitude 22:22:28 24° 91° (E) 1,134 4.3 -14.2°
Drops below altitude 10° 22:25:41 10° 36° (NE) 1,798 6.0 -14.3°
Sets 22:28:07 0° 23° (NNE) 2,696 7.3 -14.3°
